This is the latest recevied weather packets stored in our database for station/object CA2RRL-10. If no packets are shown the sender has not sent any weather packets the latest 10 day(s).
| Time | Temp. | Humidity | Pressure | Rain* | Wind** | Luminosity | Snow |
|---|---|---|---|---|---|---|---|
| 1778149145 | 7.78° C | 83% | 1036.6 hPa | - | - | - | - |
| 1778148245 | 7.78° C | 82% | 1036.4 hPa | - | - | - | - |
| 1778147345 | 8.33° C | 82% | 1036.2 hPa | - | - | - | - |
| 1778146444 | 8.33° C | 82% | 1036 hPa | - | - | - | - |
| 1778145544 | 8.33° C | 83% | 1035.7 hPa | - | - | - | - |
| 1778144644 | 7.78° C | 82% | 1035.5 hPa | - | - | - | - |
| 1778143744 | 7.78° C | 80% | 1035.5 hPa | - | - | - | - |
| 1778142844 | 8.33° C | 80% | 1035.6 hPa | - | - | - | - |
| 1778141944 | 8.33° C | 80% | 1035.5 hPa | - | - | - | - |
| 1778141044 | 8.89° C | 80% | 1035.5 hPa | - | - | - | - |
| 1778140144 | 8.89° C | 81% | 1035.4 hPa | - | - | - | - |
| 1778139244 | 9.44° C | 81% | 1035.4 hPa | - | - | - | - |
| 1778138344 | 9.44° C | 82% | 1035.4 hPa | - | - | - | - |
| 1778137444 | 10° C | 81% | 1035.4 hPa | - | - | - | - |
| 1778136544 | 10.56° C | 79% | 1035.3 hPa | - | - | - | - |
| 1778135644 | 10° C | 80% | 1035.2 hPa | - | - | - | - |
| 1778134744 | 10° C | 80% | 1035.2 hPa | - | - | - | - |
| 1778133843 | 10.56° C | 79% | 1035.1 hPa | - | - | - | - |
| 1778132943 | 10.56° C | 78% | 1034.8 hPa | - | - | - | - |
| 1778132043 | 10.56° C | 78% | 1034.6 hPa | - | - | - | - |
| 1778131143 | 11.11° C | 76% | 1034.6 hPa | - | - | - | - |
| 1778130243 | 11.11° C | 76% | 1034.5 hPa | - | - | - | - |
| 1778129343 | 11.11° C | 74% | 1034.6 hPa | - | - | - | - |
| 1778128443 | 11.11° C | 76% | 1034.6 hPa | - | - | - | - |
| 1778127543 | 11.11° C | 77% | 1034.5 hPa | - | - | - | - |
* Rain since midnight (hover to see other rain measurements)
** Current wind speed in m/s (hover to see current wind gust speed)